Location: Prairie State College
(41.5244°N, 87.6382°W)
Time: 07:16:11
(UTC-05:00)

Amateur Radio Satellites - All Passes

Search period start: 25 June 2016 06:46
Search period end: 26 June 2016 06:46
Location: Prairie State College, 41.5244°N, 87.6382°W

Satellite Date Start Highest point End Downlink Frequencies (MHz)
Time Altitude Azimuth
CUTE-I 25 Jun 06:57:10 07:02:27 54° 100° (E) 07:07:41 437.470
STRAND 1 25 Jun 07:00:04 07:05:08 63° 73° (ENE) 07:10:14 437.568
DOVE 4 25 Jun 07:15:31 07:18:57 23° 95° (E) 07:22:30 437.250
PRISM 25 Jun 07:16:50 07:18:47 13° 63° (ENE) 07:20:42 437.425
NOAA 18 25 Jun 07:23:43 07:29:17 85° 286° (WNW) 07:34:51 137.9125
HO-68 25 Jun 07:31:15 07:35:29 16° 89° (E) 07:39:41 435.675
GOMX 1 25 Jun 07:32:38 07:36:49 81° 105° (ESE) 07:41:06 467.674
GONETS M04 25 Jun 07:36:07 07:43:45 36° 275° (W) 07:51:24
NOAA 15 25 Jun 07:38:42 07:43:43 47° 290° (WNW) 07:48:43 137.62
AO-7 25 Jun 07:41:37 07:44:30 12° 318° (NW) 07:47:22 29.400- 29.500
AIST 2 25 Jun 07:44:45 07:47:20 16° 318° (NW) 07:49:57 435.215
CUTE 1.7 + AOD 2 25 Jun 07:49:28 07:51:38 14° 91° (E) 07:53:46 437.475
LilacSat-2 25 Jun 07:57:56 08:01:14 27° 290° (WNW) 08:04:31 437.200
DANDE 25 Jun 07:59:21 08:06:57 40° 89° (E) 08:14:20 436.750
SEEDS 25 Jun 08:00:52 08:02:47 13° 90° (E) 08:04:41 437.485
Cubesat XI-IV 25 Jun 08:01:40 08:06:42 42° 291° (WNW) 08:11:44 437.490
CUSAT 1 25 Jun 08:12:59 08:21:01 87° 98° (E) 08:28:01 437.405
PHONESAT 2.4 25 Jun 08:13:06 08:15:20 19° 153° (SSE) 08:17:36 2401.200-2431.200
AO-85 25 Jun 08:16:31 08:20:32 33° 246° (WSW) 08:24:14 145.980
Cosmos 2499 25 Jun 08:17:18 08:24:24 29° 278° (W) 08:31:16 435.465 / 435.565
BRITE-PL 25 Jun 08:18:45 08:21:06 15° 296° (WNW) 08:23:25 437.365/2234.400
CUTE-I 25 Jun 08:38:07 08:42:05 21° 297° (WNW) 08:46:02 437.470
CINEMA 3 25 Jun 08:39:03 08:43:28 56° 100° (E) 08:48:03 145.822/145.860
STRAND 1 25 Jun 08:41:43 08:44:43 16° 269° (W) 08:47:46 437.568
PRISM 25 Jun 08:49:30 08:53:36 58° 258° (WSW) 08:57:43 437.425
AAUSAT CUBESAT 2 25 Jun 08:49:55 08:53:24 25° 95° (E) 08:56:50 437.432
DOVE 4 25 Jun 08:52:58 08:56:41 30° 290° (WNW) 09:00:32 437.250
CUBEBUG 2 25 Jun 09:02:35 09:06:40 32° 96° (E) 09:10:50 437.445
CANX-2 25 Jun 09:02:42 09:07:01 78° 284° (WNW) 09:11:17 2200.000
AUBIESAT-1 25 Jun 09:03:27 09:05:44 15° 99° (E) 09:08:05 437.475
NOAA 18 25 Jun 09:06:43 09:09:06 13° 303° (WNW) 09:11:28 137.9125
ANTELSAT 25 Jun 09:10:13 09:12:36 15° 63° (ENE) 09:15:00 437.575/2403.000
HO-68 25 Jun 09:16:48 09:24:03 88° 287° (WNW) 09:31:16 435.675
COMPASS 1 25 Jun 09:19:37 09:23:49 71° 101° (E) 09:27:59 437.405
CUTE 1.7 + AOD 2 25 Jun 09:23:35 09:27:47 52° 286° (WNW) 09:31:55 437.475
SEEDS 25 Jun 09:34:40 09:38:50 54° 286° (WNW) 09:42:56 437.485
DELFI C3 25 Jun 09:34:55 09:36:57 13° 91° (E) 09:38:57 145.870
M-CUBED/EXP-1 PRIME 25 Jun 09:38:11 09:41:50 45° 105° (ESE) 09:45:46 437.505
DANDE 25 Jun 09:41:36 09:49:39 49° 286° (WNW) 09:57:24 436.750
ZACube-1 25 Jun 09:45:44 09:50:02 41° 98° (E) 09:54:21 437.345
PHONESAT 2.4 25 Jun 09:48:36 09:51:38 57° 169° (SSE) 09:54:40 2401.200-2431.200
UWE-3 25 Jun 09:57:51 10:02:25 85° 103° (ESE) 10:07:03 435.000/436.395/437.385
CUSAT 1 25 Jun 09:58:18 10:03:40 20° 293° (WNW) 10:08:35 437.405
HUMSAT D 25 Jun 09:58:19 10:00:10 13° 90° (E) 10:02:02 437.325/437.525
TIGRISAT 25 Jun 10:00:57 10:05:02 46° 72° (ENE) 10:09:13 435.000
Oscar 11 25 Jun 10:03:12 10:07:34 68° 101° (ESE) 10:11:53 145.826/435.025
UNISAT 6 25 Jun 10:04:40 10:08:50 55° 73° (ENE) 10:13:07 437.425
FUNcube-1 25 Jun 10:05:20 10:09:50 64° 101° (E) 10:14:22 145.935
ISS 25 Jun 10:11:03 10:14:15 57° 141° (SE) 10:17:28 145.825
CINEMA 3 25 Jun 10:17:38 10:20:12 15° 295° (WNW) 10:22:49 145.822/145.860
AAUSAT CUBESAT 2 25 Jun 10:25:19 10:28:49 27° 291° (WNW) 10:32:18 437.432
RS-15 25 Jun 10:25:55 10:31:07 14° 94° (E) 10:36:23 29.354- 29.394
AUBIESAT-1 25 Jun 10:36:42 10:40:19 43° 292° (WNW) 10:44:12 437.475
CUBEBUG 2 25 Jun 10:39:23 10:43:09 26° 292° (WNW) 10:47:00 437.445
ANTELSAT 25 Jun 10:44:40 10:48:50 53° 260° (W) 10:53:07 437.575/2403.000
COMPASS 1 25 Jun 10:57:41 10:58:47 11° 298° (WNW) 10:59:52 437.405
Cosmos 2491 25 Jun 11:00:30 11:07:27 26° 66° (ENE) 11:14:21 435.465 / 435.565
HO-68 25 Jun 11:06:11 11:10:47 19° 306° (NW) 11:15:25 435.675
NANOSAT C BR1 25 Jun 11:06:18 11:10:13 41° 72° (ENE) 11:14:09 145.865
BUGSAT 1 25 Jun 11:06:26 11:09:07 17° 66° (ENE) 11:11:47 437.445
QB50P1 25 Jun 11:07:01 11:10:59 44° 72° (ENE) 11:14:59 145.935-145.965
DELFI C3 25 Jun 11:08:12 11:12:03 45° 287° (WNW) 11:15:51 145.870
POPSAT HIP 1 25 Jun 11:09:49 11:13:49 46° 72° (ENE) 11:17:51 437.405
M-CUBED/EXP-1 PRIME 25 Jun 11:13:56 11:16:07 15° 299° (WNW) 11:18:24 437.505
PCSat 25 Jun 11:18:43 11:23:27 29° 49° (NE) 11:28:08 145.827
JAS-2 25 Jun 11:20:05 11:26:10 27° 62° (ENE) 11:31:51 435.910
QB50P2 25 Jun 11:20:58 11:25:08 68° 75° (ENE) 11:29:19 145.880/145.840
ZACube-1 25 Jun 11:22:44 11:26:02 20° 294° (WNW) 11:29:20 437.345
POLYITAN 1 25 Jun 11:23:35 11:27:45 70° 76° (ENE) 11:31:57 437.675
PHONESAT 2.4 25 Jun 11:25:06 11:28:10 70° 186° (S) 11:31:15 2401.200-2431.200
DUCHIFAT 1 25 Jun 11:28:28 11:32:36 70° 75° (ENE) 11:36:47 145.980
HUMSAT D 25 Jun 11:31:54 11:36:09 58° 286° (WNW) 11:40:23 437.325/437.525
DANDE 25 Jun 11:33:12 11:34:17 10° 305° (NW) 11:35:22 436.750
UWE-3 25 Jun 11:37:07 11:38:13 11° 299° (WNW) 11:39:19 435.000/436.395/437.385
VELOX 1 25 Jun 11:38:42 11:41:35 17° 93° (E) 11:44:27 145.980
TIGRISAT 25 Jun 11:39:31 11:42:01 15° 269° (W) 11:44:32 435.000
CUBEBUG 1 25 Jun 11:40:22 11:43:29 19° 93° (E) 11:46:35 437.445
Oscar 11 25 Jun 11:41:23 11:43:07 12° 298° (WNW) 11:44:50 145.826/435.025
FUNcube-1 25 Jun 11:43:16 11:45:34 14° 297° (WNW) 11:47:52 145.935
UNISAT 6 25 Jun 11:43:57 11:45:56 13° 270° (W) 11:47:55 437.425
ISS 25 Jun 11:48:08 11:50:53 24° 339° (NNW) 11:53:39 145.825
ESTCUBE 1 25 Jun 11:58:29 12:02:51 46° 99° (E) 12:07:09 437.505/2401.250
BEESAT 3 25 Jun 12:05:47 12:09:38 45° 53° (NE) 12:13:25 437.485
AISAT 25 Jun 12:18:01 12:22:16 48° 100° (E) 12:26:31 437.250
Gurwin Techsat 1B 25 Jun 12:23:18 12:24:16 10° 56° (ENE) 12:25:14 435.225
RS-15 25 Jun 12:29:47 12:41:00 69° 115° (ESE) 12:52:51 29.354- 29.394
Oscar 19 25 Jun 12:32:02 12:36:22 28° 66° (ENE) 12:40:41 437.125/150
BEESAT 2 25 Jun 12:36:12 12:40:08 53° 55° (NE) 12:44:01 435.950
UKube-1 25 Jun 12:38:25 12:42:36 47° 100° (E) 12:46:44 .
BUGSAT 1 25 Jun 12:40:28 12:44:13 37° 262° (W) 12:47:58 437.445
YUBILEINY 25 Jun 12:43:15 12:51:20 45° 87° (E) 12:59:27 435.215
NANOSAT C BR1 25 Jun 12:43:29 12:46:08 16° 268° (W) 12:48:48 145.865
QB50P1 25 Jun 12:44:30 12:46:59 15° 268° (W) 12:49:29 145.935-145.965
50 SAT 25 Jun 12:46:19 12:50:00 66° 285° (WNW) 12:53:38 437.505
SPROUT 25 Jun 12:47:10 12:51:13 41° 98° (E) 12:55:16 437.525
POPSAT HIP 1 25 Jun 12:47:33 12:49:51 14° 268° (W) 12:52:11 437.405
DX 1 25 Jun 12:51:13 12:55:34 83° 104° (ESE) 12:59:54 434.975-435.025
Cosmos 2491 25 Jun 12:56:25 13:05:05 71° 267° (W) 13:13:42 435.465 / 435.565
PHONESAT 2.4 25 Jun 13:01:51 13:04:35 29° 202° (SSW) 13:07:20 2401.200-2431.200
PCSat 25 Jun 13:01:52 13:06:59 44° 248° (WSW) 13:12:05 145.827
JAS-2 25 Jun 13:02:56 13:10:40 68° 259° (WSW) 13:17:51 435.910
AO-7 25 Jun 13:06:13 13:09:08 12° 42° (NE) 13:12:02 29.400- 29.500
VELOX 1 25 Jun 13:14:05 13:18:15 43° 289° (WNW) 13:22:24 145.980
CUBEBUG 1 25 Jun 13:15:54 13:19:53 37° 289° (WNW) 13:23:51 437.445
O/OREOS (USA 219) 25 Jun 13:25:56 13:30:26 80° 66° (ENE) 13:34:55 437.305
ISS 25 Jun 13:26:22 13:28:12 14° 359° (N) 13:30:01 145.825
ESTCUBE 1 25 Jun 13:36:15 13:39:17 18° 296° (WNW) 13:42:19 437.505/2401.250
BEESAT 3 25 Jun 13:44:32 13:46:56 16° 250° (WSW) 13:49:20 437.485
AISAT 25 Jun 13:55:35 13:58:22 17° 296° (WNW) 14:01:08 437.250
Gurwin Techsat 1B 25 Jun 13:57:59 14:03:17 75° 74° (ENE) 14:08:36 435.225
Oscar 19 25 Jun 14:10:47 14:15:32 36° 263° (W) 14:20:17 437.125/150
Cosmos 2504 25 Jun 14:12:44 14:20:21 51° 89° (E) 14:28:32 435.465 / 435.565
BEESAT 2 25 Jun 14:15:29 14:17:31 14° 251° (WSW) 14:19:32 435.950
UKube-1 25 Jun 14:15:34 14:18:16 16° 296° (WNW) 14:20:57 .
TISAT 1 25 Jun 14:20:50 14:25:01 69° 285° (WNW) 14:29:12 437.305
SPROUT 25 Jun 14:23:58 14:26:51 18° 295° (WNW) 14:29:45 437.525
ITAMSAT 1 25 Jun 14:24:53 14:29:53 49° 71° (ENE) 14:34:56 435.822/435.867
AIST 2 25 Jun 14:25:36 14:29:36 43° 53° (NE) 14:33:34 435.215
DX 1 25 Jun 14:30:58 14:31:05 10° 300° (WNW) 14:31:11 434.975-435.025
YUBILEINY 25 Jun 14:40:07 14:48:09 41° 288° (WNW) 14:56:18 435.215
SWISSCUBE 25 Jun 14:40:36 14:45:04 37° 98° (E) 14:49:29 437.505
RS-15 25 Jun 14:43:29 14:54:18 43° 321° (NW) 15:05:42 29.354- 29.394
AO-7 25 Jun 14:52:01 14:59:57 52° 64° (ENE) 15:07:58 29.400- 29.500
JAS-2 25 Jun 14:54:19 14:56:37 11° 274° (W) 14:58:54 435.910
Cosmos 2491 25 Jun 14:57:04 15:00:11 12° 287° (WNW) 15:03:19 435.465 / 435.565
ISS 25 Jun 15:02:55 15:05:33 22° 19° (NNE) 15:08:10 145.825
ITUPSAT 1 25 Jun 15:04:45 15:09:31 58° 101° (E) 15:14:15 437.325
BEESAT 25 Jun 15:06:08 15:10:53 62° 101° (ESE) 15:15:37 436.000
HORYU 2 25 Jun 15:41:01 15:43:41 16° 63° (ENE) 15:46:22 437.375
Gurwin Techsat 1B 25 Jun 15:41:14 15:43:47 13° 271° (W) 15:46:21 435.225
STARS 25 Jun 15:59:15 16:01:13 13° 91° (E) 16:03:11 437.465
AIST 2 25 Jun 16:04:54 16:07:45 18° 249° (WSW) 16:10:36 435.215
ITAMSAT 1 25 Jun 16:05:48 16:09:37 20° 267° (W) 16:13:27 435.822/435.867
Cosmos 2504 25 Jun 16:06:48 16:14:01 35° 290° (WNW) 16:21:43 435.465 / 435.565
MOZHAYETS 4 25 Jun 16:16:46 16:21:06 37° 97° (E) 16:25:23
SWISSCUBE 25 Jun 16:18:48 16:22:39 24° 294° (WNW) 16:26:28 437.505
ISS 25 Jun 16:39:01 16:42:17 76° 217° (SW) 16:45:32 145.825
CUTE-I 25 Jun 16:43:00 16:45:12 13° 58° (ENE) 16:47:24 437.470
ITUPSAT 1 25 Jun 16:43:53 16:46:52 17° 298° (WNW) 16:49:51 437.325
BEESAT 25 Jun 16:45:20 16:48:10 16° 298° (WNW) 16:50:59 436.000
AO-7 25 Jun 16:45:25 16:52:54 37° 262° (W) 17:00:29 29.400- 29.500
KKS-1 25 Jun 16:51:51 16:56:18 84° 285° (WNW) 17:00:45 437.445
SO-50 25 Jun 16:58:51 17:03:45 83° 120° (ESE) 17:08:39 436.795
RS-15 25 Jun 17:02:18 17:11:20 23° 355° (N) 17:20:35 29.354- 29.394
LilacSat-2 25 Jun 17:07:52 17:09:12 12° 64° (ENE) 17:10:32 437.200
NOAA 18 25 Jun 17:11:06 17:15:31 26° 64° (ENE) 17:19:58 137.9125
HORYU 2 25 Jun 17:15:31 17:19:49 52° 260° (W) 17:24:10 437.375
NOAA 15 25 Jun 17:19:37 17:24:25 36° 68° (ENE) 17:29:13 137.62
STARS 25 Jun 17:33:36 17:37:56 59° 287° (WNW) 17:42:15 437.465
AIST 1 25 Jun 17:33:50 17:38:08 65° 95° (E) 17:42:25
CUBESAT XI-V 25 Jun 17:35:05 17:39:08 29° 96° (E) 17:43:08 437.345
Cubesat XI-IV 25 Jun 17:44:00 17:49:00 42° 69° (ENE) 17:54:03 437.490
BRITE-PL 25 Jun 17:49:02 17:54:08 59° 74° (ENE) 17:58:52 437.365/2234.400
MOZHAYETS 4 25 Jun 17:54:25 17:58:02 23° 294° (WNW) 18:01:38
HO-68 25 Jun 18:02:07 18:05:36 14° 51° (NE) 18:09:04 435.675
CUTE-I 25 Jun 18:19:05 18:24:25 87° 76° (ENE) 18:29:50 437.470
DOVE 4 25 Jun 18:21:33 18:25:04 24° 69° (ENE) 18:28:29 437.250
LilacSat-2 25 Jun 18:39:22 18:43:02 52° 261° (W) 18:46:46 437.200
GONETS M04 25 Jun 18:39:46 18:48:12 57° 91° (E) 18:56:38
GOMX 1 25 Jun 18:40:34 18:45:19 88° 78° (ENE) 18:49:47 467.674
SO-50 25 Jun 18:41:35 18:44:50 17° 321° (NW) 18:48:05 436.795
DANDE 25 Jun 18:42:05 18:45:58 19° 62° (ENE) 18:49:11 436.750
CUTE 1.7 + AOD 2 25 Jun 18:43:49 18:44:51 11° 62° (ENE) 18:45:54 437.475
NOAA 18 25 Jun 18:50:44 18:55:55 44° 261° (W) 19:01:09 137.9125
CUSAT 1 25 Jun 18:50:51 18:54:49 46° 75° (ENE) 18:57:55 437.405
Cosmos 2499 25 Jun 18:58:55 19:06:43 50° 88° (E) 19:15:01 435.465 / 435.565
NOAA 15 25 Jun 18:59:38 19:04:12 29° 264° (W) 19:08:47 137.62
STRAND 1 25 Jun 19:11:14 19:15:07 21° 93° (E) 19:18:58 437.568
CUBESAT XI-V 25 Jun 19:12:30 19:16:26 28° 292° (WNW) 19:20:20 437.345
AIST 1 25 Jun 19:14:56 19:16:12 11° 292° (WNW) 19:17:27
RS-15 25 Jun 19:18:27 19:29:10 33° 30° (NNE) 19:39:55 29.354- 29.394
Cubesat XI-IV 25 Jun 19:24:53 19:29:13 25° 266° (W) 19:33:35 437.490
BRITE-PL 25 Jun 19:29:47 19:32:52 16° 268° (W) 19:35:51 437.365/2234.400
AAUSAT CUBESAT 2 25 Jun 19:40:48 19:43:40 18° 66° (ENE) 19:46:34 437.432
CINEMA 3 25 Jun 19:41:09 19:45:09 48° 73° (ENE) 19:49:10 145.822/145.860
HO-68 25 Jun 19:44:57 19:52:02 70° 70° (ENE) 19:59:11 435.675
AUBIESAT-1 25 Jun 19:50:32 19:52:35 16° 62° (ENE) 19:54:40 437.475
CANX-2 25 Jun 19:55:07 19:59:22 74° 76° (ENE) 20:03:40 2200.000
DOVE 4 25 Jun 19:58:50 20:02:41 29° 263° (W) 20:06:24 437.250
CUBEBUG 2 25 Jun 20:01:24 20:04:47 25° 68° (ENE) 20:08:13 437.445
CUTE-I 25 Jun 20:03:34 20:05:09 11° 272° (W) 20:06:45 437.470
COMPASS 1 25 Jun 20:10:10 20:14:12 47° 73° (ENE) 20:18:16 437.405
CUTE 1.7 + AOD 2 25 Jun 20:15:47 20:20:03 75° 259° (W) 20:24:21 437.475
DANDE 25 Jun 20:24:16 20:29:17 40° 270° (W) 20:33:04 436.750
M-CUBED/EXP-1 PRIME 25 Jun 20:25:39 20:28:52 56° 69° (ENE) 20:32:05 437.505
SEEDS 25 Jun 20:25:54 20:30:08 80° 257° (WSW) 20:34:26 437.485
PRISM 25 Jun 20:31:48 20:34:38 18° 94° (E) 20:37:26 437.425
GONETS M04 25 Jun 20:37:55 20:45:26 32° 291° (WNW) 20:53:00
ZACube-1 25 Jun 20:41:56 20:45:37 31° 69° (ENE) 20:49:23 437.345
STRAND 1 25 Jun 20:49:34 20:54:31 47° 289° (WNW) 20:59:25 437.568
Cosmos 2499 25 Jun 20:52:37 21:00:04 36° 290° (WNW) 21:08:00 435.465 / 435.565
AO-85 25 Jun 20:54:05 20:54:36 10° 105° (ESE) 20:55:06 145.980
UWE-3 25 Jun 20:54:57 20:59:04 67° 75° (ENE) 21:03:17 435.000/436.395/437.385
Oscar 11 25 Jun 20:57:46 21:01:58 51° 73° (ENE) 21:06:12 145.826/435.025
FUNcube-1 25 Jun 21:00:59 21:04:59 47° 72° (ENE) 21:09:05 145.935
AAUSAT CUBESAT 2 25 Jun 21:14:57 21:18:52 39° 262° (W) 21:22:50 437.432
CINEMA 3 25 Jun 21:20:37 21:22:37 13° 269° (W) 21:24:35 145.822/145.860
AUBIESAT-1 25 Jun 21:24:03 21:26:55 27° 258° (WSW) 21:29:48 437.475
RS-15 25 Jun 21:31:20 21:43:46 84° 57° (ENE) 21:56:03 29.354- 29.394
HO-68 25 Jun 21:35:03 21:40:19 22° 268° (W) 21:45:39 435.675
CUBEBUG 2 25 Jun 21:37:48 21:41:20 27° 265° (W) 21:44:55 437.445
COMPASS 1 25 Jun 21:47:39 21:50:00 15° 269° (W) 21:52:23 437.405
DELFI C3 25 Jun 21:53:34 21:57:36 81° 255° (WSW) 22:01:41 145.870
TIGRISAT 25 Jun 21:54:57 21:55:41 10° 89° (E) 21:56:26 435.000
UNISAT 6 25 Jun 21:57:52 21:59:47 12° 90° (E) 22:01:42 437.425
PRISM 25 Jun 22:06:18 22:10:03 35° 290° (WNW) 22:13:46 437.425
ZACube-1 25 Jun 22:18:43 22:21:57 22° 267° (W) 22:25:15 437.345
HUMSAT D 25 Jun 22:22:50 22:26:58 84° 257° (WSW) 22:31:12 437.325/437.525
AO-85 25 Jun 22:28:52 22:34:17 76° 120° (ESE) 22:39:34 145.980
ANTELSAT 25 Jun 22:35:59 22:40:06 31° 96° (E) 22:44:15 437.575/2403.000
Oscar 11 25 Jun 22:36:06 22:38:24 14° 269° (W) 22:40:42 145.826/435.025
VELOX 1 25 Jun 22:36:33 22:39:20 17° 64° (ENE) 22:42:08 145.980
CUBEBUG 1 25 Jun 22:36:53 22:39:47 18° 65° (ENE) 22:42:40 437.445
FUNcube-1 25 Jun 22:39:14 22:41:32 14° 269° (W) 22:43:50 145.935
YUBILEINY 25 Jun 22:53:28 23:00:03 22° 64° (ENE) 23:06:35 435.215
ESTCUBE 1 25 Jun 22:57:55 23:02:12 43° 71° (ENE) 23:06:31 437.505/2401.250
QB50P2 25 Jun 23:08:10 23:09:20 11° 90° (E) 23:10:30 145.880/145.840
POLYITAN 1 25 Jun 23:10:37 23:11:58 11° 90° (E) 23:13:19 437.675
DUCHIFAT 1 25 Jun 23:14:56 23:16:01 11° 90° (E) 23:17:04 145.980
AISAT 25 Jun 23:15:21 23:19:31 43° 72° (ENE) 23:23:42 437.250
50 SAT 25 Jun 23:23:56 23:27:32 53° 74° (ENE) 23:31:12 437.505
TIGRISAT 25 Jun 23:28:13 23:32:51 79° 285° (WNW) 23:37:32 435.000
UNISAT 6 25 Jun 23:32:18 23:36:54 67° 286° (WNW) 23:41:33 437.425
UKube-1 25 Jun 23:32:56 23:36:58 40° 71° (ENE) 23:41:01 .
SPROUT 25 Jun 23:40:53 23:44:40 32° 70° (ENE) 23:48:27 437.525
RS-15 25 Jun 23:45:15 23:54:53 28° 258° (WSW) 00:04:26 29.354- 29.394
DX 1 25 Jun 23:46:30 23:50:50 72° 74° (ENE) 23:55:11 434.975-435.025
SO-50 25 Jun 23:51:31 23:53:49 13° 35° (NE) 23:56:05 436.795
Cosmos 2491 26 Jun 00:02:38 00:09:44 29° 82° (E) 00:16:48 435.465 / 435.565
Cosmos 2504 26 Jun 00:05:45 00:12:02 21° 62° (ENE) 00:18:10 435.465 / 435.565
VELOX 1 26 Jun 00:11:09 00:15:25 48° 260° (W) 00:19:43 145.980
AO-85 26 Jun 00:11:18 00:15:19 21° 318° (NW) 00:19:12 145.980
CUBEBUG 1 26 Jun 00:11:33 00:15:44 44° 261° (W) 00:19:55 437.445
ANTELSAT 26 Jun 00:12:49 00:16:42 27° 292° (WNW) 00:20:37 437.575/2403.000
JAS-2 26 Jun 00:15:42 00:18:34 14° 87° (E) 00:21:20 435.910
BUGSAT 1 26 Jun 00:21:56 00:25:28 27° 97° (E) 00:28:59 437.445
NANOSAT C BR1 26 Jun 00:25:43 00:29:58 77° 102° (ESE) 00:34:13 145.865
QB50P1 26 Jun 00:26:52 00:31:08 83° 105° (ESE) 00:35:23 145.935-145.965
POPSAT HIP 1 26 Jun 00:29:45 00:34:02 88° 103° (ESE) 00:38:18 437.405
ESTCUBE 1 26 Jun 00:36:03 00:39:11 18° 267° (W) 00:42:22 437.505/2401.250
QB50P2 26 Jun 00:41:19 00:45:33 64° 286° (WNW) 00:49:46 145.880/145.840
POLYITAN 1 26 Jun 00:43:56 00:48:10 62° 286° (WNW) 00:52:23 437.675
DUCHIFAT 1 26 Jun 00:47:54 00:52:06 64° 286° (WNW) 00:56:17 145.980
YUBILEINY 26 Jun 00:49:02 00:57:54 81° 265° (W) 01:06:44 435.215
AISAT 26 Jun 00:53:16 00:56:11 17° 267° (W) 00:59:07 437.250
UKube-1 26 Jun 01:10:14 01:13:10 18° 267° (W) 01:16:08 .
TISAT 1 26 Jun 01:12:13 01:16:23 88° 77° (ENE) 01:20:35 437.305
SPROUT 26 Jun 01:17:23 01:20:39 21° 266° (W) 01:23:57 437.525
SO-50 26 Jun 01:30:27 01:35:09 75° 56° (ENE) 01:39:40 436.795
SWISSCUBE 26 Jun 01:47:01 01:51:32 44° 70° (ENE) 01:56:06 437.505
Cosmos 2491 26 Jun 01:57:15 02:05:55 62° 282° (WNW) 02:14:36 435.465 / 435.565
BUGSAT 1 26 Jun 01:57:27 02:00:43 23° 292° (WNW) 02:04:00 437.445
Cosmos 2504 26 Jun 01:57:43 02:06:42 90° 269° (W) 02:15:19 435.465 / 435.565
JAS-2 26 Jun 01:58:40 02:04:28 70° 287° (WNW) 02:09:43 435.910
PCSat 26 Jun 02:01:18 02:05:30 23° 107° (ESE) 02:09:43 145.827
NANOSAT C BR1 26 Jun 02:04:21 02:05:04 10° 299° (WNW) 02:05:47 145.865
ITUPSAT 1 26 Jun 02:11:23 02:16:08 69° 74° (ENE) 02:20:57 437.325
BEESAT 26 Jun 02:12:24 02:17:09 72° 74° (ENE) 02:21:56 436.000
Gurwin Techsat 1B 26 Jun 02:14:29 02:19:06 29° 95° (E) 02:23:41 435.225
Oscar 19 26 Jun 02:21:33 02:26:42 78° 103° (ESE) 02:31:50 437.125/150
ITAMSAT 1 26 Jun 02:38:41 02:42:04 17° 92° (E) 02:45:25 435.822/435.867
YUBILEINY 26 Jun 02:48:35 02:53:11 16° 285° (WNW) 02:57:50 435.215
AO-7 26 Jun 02:55:53 02:59:56 14° 88° (E) 03:03:58 29.400- 29.500
STARS 26 Jun 02:56:40 02:58:33 13° 62° (ENE) 03:00:26 437.465
SO-50 26 Jun 03:13:11 03:14:55 12° 253° (WSW) 03:16:40 436.795
MOZHAYETS 4 26 Jun 03:18:38 03:22:51 36° 70° (ENE) 03:27:06
SWISSCUBE 26 Jun 03:26:02 03:29:32 20° 267° (W) 03:33:01 437.505
BEESAT 3 26 Jun 03:33:32 03:37:28 81° 119° (ESE) 03:41:25 437.485
O/OREOS (USA 219) 26 Jun 03:38:07 03:42:37 88° 291° (WNW) 03:47:07 437.305
AIST 1 26 Jun 03:41:46 03:44:27 16° 71° (ENE) 03:47:07
PCSat 26 Jun 03:43:17 03:48:32 50° 304° (NW) 03:53:51 145.827
KKS-1 26 Jun 03:49:42 03:54:08 89° 65° (ENE) 03:58:35 437.445
ITUPSAT 1 26 Jun 03:52:21 03:54:27 13° 270° (W) 03:56:33 437.325
Cosmos 2504 26 Jun 03:53:11 03:58:45 19° 283° (WNW) 04:04:15 435.465 / 435.565
BEESAT 26 Jun 03:53:37 03:55:26 12° 270° (W) 03:57:15 436.000
Gurwin Techsat 1B 26 Jun 03:54:14 03:59:04 36° 292° (WNW) 04:03:52 435.225
Cosmos 2491 26 Jun 04:01:46 04:04:50 12° 305° (NW) 04:07:55 435.465 / 435.565
Oscar 19 26 Jun 04:02:46 04:05:21 14° 300° (WNW) 04:07:58 437.125/150
BEESAT 2 26 Jun 04:05:27 04:09:25 84° 303° (WNW) 04:13:25 435.950
ITAMSAT 1 26 Jun 04:16:45 04:21:54 59° 288° (WNW) 04:27:02 435.822/435.867
STARS 26 Jun 04:30:02 04:34:22 66° 259° (WSW) 04:38:42 437.465
CUBESAT XI-V 26 Jun 04:38:23 04:42:28 30° 69° (ENE) 04:46:33 437.345
AO-7 26 Jun 04:45:33 04:53:59 76° 107° (ESE) 05:02:20 29.400- 29.500
GONETS M04 26 Jun 04:50:07 04:57:24 28° 67° (ENE) 05:04:38
Cosmos 2499 26 Jun 04:51:01 04:57:01 20° 61° (ENE) 05:02:49 435.465 / 435.565
MOZHAYETS 4 26 Jun 04:56:28 05:00:05 23° 266° (W) 05:03:45
HORYU 2 26 Jun 05:06:25 05:10:19 28° 96° (E) 05:14:11 437.375
BEESAT 3 26 Jun 05:13:50 05:15:41 13° 320° (NW) 05:17:31 437.485
AIST 1 26 Jun 05:18:15 05:22:15 41° 268° (W) 05:26:14
O/OREOS (USA 219) 26 Jun 05:21:41 05:22:43 11° 311° (NW) 05:23:46 437.305
AO-85 26 Jun 05:22:53 05:24:22 11° 32° (NNE) 05:25:49 145.980
PCSat 26 Jun 05:32:08 05:33:17 11° 326° (NW) 05:34:26 145.827
NOAA 15 26 Jun 05:36:26 05:38:33 12° 89° (E) 05:40:40 137.62
BEESAT 2 26 Jun 05:46:33 05:47:54 11° 322° (NW) 05:49:14 435.950
BRITE-PL 26 Jun 05:55:07 05:57:28 15° 92° (E) 05:59:48 437.365/2234.400
AIST 2 26 Jun 06:01:01 06:05:07 89° 135° (SE) 06:09:17 435.215
Cubesat XI-IV 26 Jun 06:02:09 06:05:30 17° 91° (E) 06:08:50 437.490
CUSAT 1 26 Jun 06:12:45 06:15:28 12° 82° (E) 06:18:04 437.405
LilacSat-2 26 Jun 06:13:27 06:15:56 16° 93° (E) 06:18:24 437.200
CUBESAT XI-V 26 Jun 06:15:45 06:19:48 28° 265° (W) 06:23:52 437.345
STRAND 1 26 Jun 06:27:02 06:31:31 31° 67° (ENE) 06:36:01 437.568
CUTE-I 26 Jun 06:36:17 06:41:11 34° 97° (E) 06:46:03 437.470
